Location: Pine Lake Village
(34.3370°N, 86.5394°W)
Time: 13:56:47
(UTC+00:00)

Tiangong 2 - Visible Passes

Search period start: 17 December 2018 00:00
Search period end: 27 December 2018 00:00
Orbit: 383 x 391 km, 42.8° (Epoch: 17 December)

Date Brightness Start Highest point End Pass type
(mag) Time Alt. Az. Time Alt. Az. Time Alt. Az.
17 Dec 3.1 00:21:01 10° SSW 00:22:30 20° S 00:22:30 20° S visible
17 Dec 3.5 23:23:36 10° SSE 23:25:02 12° SE 23:26:27 10° ESE visible
18 Dec 4.2 00:58:19 10° WSW 00:59:02 16° WSW 00:59:02 16° WSW visible
18 Dec 1.4 23:59:39 10° SW 00:02:43 51° SSE 00:03:12 45° ESE visible
20 Dec 3.0 00:37:42 10° W 00:39:35 29° WNW 00:39:35 29° WNW visible
20 Dec 1.1 23:38:43 10° WSW 23:41:53 76° NNW 23:43:39 24° NE visible
22 Dec 2.6 00:17:14 10° WNW 00:19:55 27° NNW 00:19:55 27° NNW visible
22 Dec 1.9 23:18:03 10° W 23:21:06 41° NNW 23:23:53 11° NE visible
23 Dec 4.3 00:56:07 10° NW 00:56:09 10° NW 00:56:09 10° NW visible
23 Dec 2.9 23:56:51 10° WNW 23:59:21 21° N 00:00:05 19° N visible
25 Dec 3.8 00:35:34 10° NW 00:36:17 13° NNW 00:36:17 13° NNW visible
25 Dec 3.1 23:36:25 10° NW 23:38:41 18° N 23:40:13 14° NNE visible
